Location: Davayat
(45.9471°N, 3.1105°E)
Time: 13:49:20
(UTC+00:00)

Cosmos 1943 Rocket - Pass Details

Date: 01 December 2020
Orbit: 811 x 845 km, 71.0° (Epoch: 27 January)

Event Time Altitude Azimuth Distance (km) Brightness Sun altitude
Rises 17:52:23 0° 328° (NNW) 3,360 5.6 -18.2°
Reaches altitude 10° 17:54:53 10° 323° (NW) 2,428 4.9 -18.6°
Maximum altitude 18:00:09 45° 252° (WSW) 1,119 3.3 -19.5°
Drops below altitude 10° 18:05:25 10° 181° (S) 2,434 4.7 -20.4°
Sets 18:07:56 0° 175° (S) 3,368 5.4 -20.8°
